User: anonymous   Login
Location: Unspecified
(0.0000°N, 0.0000°E)
Time: 19:49:21
(UTC+00:00)
Language:

COSMOS-2414 - Orbit

View from above orbital plane
View from above orbital plane
View from above satellite
View from above satellite

Ground track
Ground track

The orbit data is extracted from the following two-line orbital elements,

1 28521U 05002A   17269.37737058  .00000061  00000-0  37973-4 0  9990
2 28521  82.9486 292.3217 0041754  51.8089 308.6821 13.87591359642310
Epoch (UTC): 26 September 2017 09:03:24
Eccentricity: 0.0041754
inclination: 82.9486°
perigee height: 906 km
apogee height: 967 km
right ascension of ascending node: 292.3217°
argument of perigee: 51.8089°
revolutions per day: 13.87591359
mean anomaly at epoch: 308.6821°
orbit number at epoch: 64231

The dashed part of the orbit path shows where the satellite is in the earth's shadow,  

DLR